| time (UTC) | temp F | wind direction | speed MPH | gust MPH | rain 1hr in | rain 24hr in | rain mn in | humidity % | barometer mb |
| 20260904183503 | 90 | 100 | 7.0 | 11.0 | 0.00 | 0.00 | 0.00 | 46 | 1011.7 |
| 20260904183003 | 90 | 88 | 5.0 | 11.0 | 0.00 | 0.00 | 0.00 | 48 | 1011.9 |
| 20260904182503 | 90 | 94 | 6.0 | 10.0 | 0.00 | 0.00 | 0.00 | 48 | 1011.9 |
| 20260904182003 | 90 | 99 | 7.0 | 10.0 | 0.00 | 0.00 | 0.00 | 48 | 1011.8 |
| 20260904181503 | 90 | 81 | 5.0 | 11.0 | 0.00 | 0.00 | 0.00 | 49 | 1012.0 |
| 20260904181003 | 90 | 88 | 5.0 | 12.0 | 0.00 | 0.00 | 0.00 | 48 | 1011.9 |
| 20260904180503 | 90 | 99 | 6.0 | 12.0 | 0.00 | 0.00 | 0.00 | 48 | 1011.7 |
| 20260904180002 | 90 | 89 | 7.0 | 11.0 | 0.00 | 0.00 | 0.00 | 48 | 1011.7 |
| 20260904175503 | 90 | 99 | 6.0 | 11.0 | 0.00 | 0.00 | 0.00 | 47 | 1011.8 |
| 20260904175003 | 90 | 94 | 6.0 | 10.0 | 0.00 | 0.00 | 0.00 | 48 | 1011.8 |
| 20260904174503 | 90 | 75 | 4.0 | 10.0 | 0.00 | 0.00 | 0.00 | 52 | 1011.7 |
| 20260904174003 | 90 | 82 | 6.0 | 10.0 | 0.00 | 0.00 | 0.00 | 50 | 1011.7 |
| 20260904173503 | 89 | 97 | 6.0 | 10.0 | 0.00 | 0.00 | 0.00 | 50 | 1011.7 |
| 20260904173003 | 89 | 96 | 5.0 | 11.0 | 0.00 | 0.00 | 0.00 | 52 | 1011.7 |
| 20260904172503 | 89 | 94 | 6.0 | 11.0 | 0.00 | 0.00 | 0.00 | 54 | 1011.7 |
| 20260904172003 | 89 | 76 | 6.0 | 11.0 | 0.00 | 0.00 | 0.00 | 55 | 1011.6 |
| 20260904171503 | 89 | 93 | 4.0 | 11.0 | 0.00 | 0.00 | 0.00 | 57 | 1011.5 |
| 20260904171003 | 88 | 82 | 4.0 | 9.0 | 0.00 | 0.00 | 0.00 | 58 | 1011.5 |
| 20260904170503 | 88 | 100 | 4.0 | 11.0 | 0.00 | 0.00 | 0.00 | 59 | 1011.5 |
| 20260904170003 | 88 | 91 | 5.0 | 11.0 | 0.00 | 0.00 | 0.00 | 60 | 1011.5 |
| 20260904165503 | 88 | 79 | 4.0 | 9.0 | 0.00 | 0.00 | 0.00 | 59 | 1011.5 |
| 20260904165003 | 87 | 84 | 4.0 | 9.0 | 0.00 | 0.00 | 0.00 | 59 | 1011.3 |
| 20260904164503 | 87 | 59 | 3.0 | 10.0 | 0.00 | 0.00 | 0.00 | 63 | 1011.4 |
| 20260904164003 | 86 | 97 | 7.0 | 10.0 | 0.00 | 0.00 | 0.00 | 63 | 1011.3 |
| 20260904163503 | 86 | 89 | 4.0 | 7.0 | 0.00 | 0.00 | 0.00 | 66 | 1011.3 |
| 20260904163003 | 85 | 57 | 3.0 | 6.0 | 0.00 | 0.00 | 0.00 | 66 | 1011.4 |
| 20260904162502 | 85 | 72 | 3.0 | 6.0 | 0.00 | 0.00 | 0.00 | 67 | 1011.3 |
| 20260904162003 | 84 | 76 | 4.0 | 6.0 | 0.00 | 0.00 | 0.00 | 68 | 1011.3 |
| 20260904161502 | 84 | 82 | 3.0 | 6.0 | 0.00 | 0.00 | 0.00 | 73 | 1011.3 |
| 20260904161003 | 83 | 56 | 3.0 | 7.0 | 0.00 | 0.00 | 0.00 | 79 | 1011.3 |
| 20260904160502 | 83 | 51 | 3.0 | 7.0 | 0.00 | 0.00 | 0.00 | 81 | 1011.3 |
| 20260904160003 | 82 | 71 | 3.0 | 7.0 | 0.00 | 0.00 | 0.00 | 82 | 1011.3 |
| 20260904155502 | 82 | 59 | 3.0 | 6.0 | 0.00 | 0.00 | 0.00 | 83 | 1011.3 |
| 20260904155003 | 81 | 67 | 1.0 | 5.0 | 0.00 | 0.00 | 0.00 | 84 | 1011.3 |
| 20260904154502 | 81 | 85 | 2.0 | 5.0 | 0.00 | 0.00 | 0.00 | 85 | 1011.2 |
| 20260904154003 | 80 | 85 | 3.0 | 5.0 | 0.00 | 0.00 | 0.00 | 86 | 1011.2 |
| 20260904153502 | 80 | 63 | 2.0 | 4.0 | 0.00 | 0.00 | 0.00 | 88 | 1011.3 |
| 20260904153003 | 79 | 55 | 1.0 | 4.0 | 0.00 | 0.00 | 0.00 | 89 | 1011.3 |
| 20260904152503 | 78 | 57 | 1.0 | 3.0 | 0.00 | 0.00 | 0.00 | 90 | 1011.2 |
| 20260904152003 | 78 | 57 | 0.0 | 3.0 | 0.00 | 0.00 | 0.00 | 90 | 1011.2 |
| 20260904151502 | 78 | 57 | 0.0 | 5.0 | 0.00 | 0.00 | 0.00 | 91 | 1011.1 |
| 20260904151003 | 78 | 57 | 3.0 | 5.0 | 0.00 | 0.00 | 0.00 | 90 | 1011.1 |
| 20260904150502 | 77 | 75 | 3.0 | 5.0 | 0.00 | 0.00 | 0.00 | 91 | 1011.1 |
| 20260904150003 | 77 | 112 | 2.0 | 4.0 | 0.00 | 0.00 | 0.00 | 93 | 1011.1 |
| 20260904145502 | 76 | 112 | 2.0 | 3.0 | 0.00 | 0.00 | 0.00 | 93 | 1011.1 |
| 20260904145003 | 76 | 112 | 0.0 | 3.0 | 0.00 | 0.00 | 0.00 | 95 | 1011.1 |
| 20260904144502 | 76 | 112 | 0.0 | 3.0 | 0.00 | 0.00 | 0.00 | 95 | 1011.1 |
| 20260904144003 | 75 | 112 | 0.0 | 2.0 | 0.00 | 0.00 | 0.00 | 95 | 1010.9 |
| 20260904143502 | 75 | 112 | 0.0 | 2.0 | 0.00 | 0.00 | 0.00 | 96 | 1011.0 |
| 20260904143003 | 75 | 112 | 0.0 | 3.0 | 0.00 | 0.00 | 0.00 | 97 | 1010.9 |
| 20260904142503 | 75 | 112 | 1.0 | 3.0 | 0.00 | 0.00 | 0.00 | 97 | 1010.8 |
| 20260904142003 | 74 | 112 | 0.0 | 3.0 | 0.00 | 0.00 | 0.00 | 98 | 1010.7 |
| 20260904141503 | 74 | 112 | 1.0 | 3.0 | 0.00 | 0.00 | 0.00 | 99 | 1010.9 |
| 20260904141003 | 73 | 112 | 0.0 | 1.0 | 0.00 | 0.00 | 0.00 | 100 | 1010.9 |
| 20260904140503 | 73 | 112 | 0.0 | 1.0 | 0.00 | 0.00 | 0.00 | 100 | 1010.9 |
| 20260904140003 | 72 | 112 | 0.0 | 0.0 | 0.00 | 0.00 | 0.00 | 100 | 1010.9 |
| 20260904135503 | 72 | 112 | 0.0 | 1.0 | 0.00 | 0.00 | 0.00 | 100 | 1010.9 |
| 20260904135003 | 72 | 112 | 0.0 | 1.0 | 0.00 | 0.00 | 0.00 | 100 | 1010.9 |
| 20260904134503 | 71 | 112 | 0.0 | 1.0 | 0.00 | 0.00 | 0.00 | 100 | 1010.7 |
| 20260904134003 | 71 | 112 | 0.0 | 1.0 | 0.00 | 0.00 | 0.00 | 100 | 1010.7 |
| 20260904133503 | 71 | 112 | 0.0 | 0.0 | 0.00 | 0.00 | 0.00 | 100 | 1010.7 |
| 20260904133003 | 71 | 112 | 0.0 | 0.0 | 0.00 | 0.00 | 0.00 | 100 | 1010.8 |
| 20260904132503 | 71 | 112 | 0.0 | 0.0 | 0.00 | 0.00 | 0.00 | 100 | 1010.8 |
| 20260904132002 | 70 | 112 | 0.0 | 1.0 | 0.00 | 0.00 | 0.00 | 100 | 1010.7 |
| 20260904131503 | 70 | 112 | 0.0 | 1.0 | 0.00 | 0.00 | 0.00 | 100 | 1010.6 |
| 20260904131002 | 69 | 112 | 0.0 | 1.0 | 0.00 | 0.00 | 0.00 | 100 | 1010.6 |
| 20260904130503 | 69 | 112 | 0.0 | 1.0 | 0.00 | 0.00 | 0.00 | 100 | 1010.5 |
| 20260904130003 | 68 | 112 | 0.0 | 1.0 | 0.00 | 0.00 | 0.00 | 100 | 1010.5 |
| 20260904125503 | 68 | 112 | 0.0 | 0.0 | 0.00 | 0.00 | 0.00 | 100 | 1010.4 |
| 20260904125003 | 67 | 112 | 0.0 | 0.0 | 0.00 | 0.00 | 0.00 | 100 | 1010.5 |
| 20260904124503 | 67 | 112 | 0.0 | 0.0 | 0.00 | 0.00 | 0.00 | 100 | 1010.3 |
| 20260904124003 | 66 | 112 | 0.0 | 0.0 | 0.00 | 0.00 | 0.00 | 100 | 1010.3 |
| 20260904123503 | 66 | 112 | 0.0 | 0.0 | 0.00 | 0.00 | 0.00 | 100 | 1010.3 |
| 20260904123003 | 66 | 112 | 0.0 | 0.0 | 0.00 | 0.00 | 0.00 | 100 | 1010.2 |
| 20260904122503 | 66 | 112 | 0.0 | 0.0 | 0.00 | 0.00 | 0.00 | 100 | 1010.2 |
| 20260904122003 | 66 | 112 | 0.0 | 0.0 | 0.00 | 0.00 | 0.00 | 100 | 1010.1 |
| 20260904121502 | 66 | 112 | 0.0 | 0.0 | 0.00 | 0.00 | 0.00 | 100 | 1010.1 |
| 20260904121003 | 66 | 112 | 0.0 | 0.0 | 0.00 | 0.00 | 0.00 | 100 | 1010.1 |
| 20260904120503 | 66 | 112 | 0.0 | 0.0 | 0.00 | 0.00 | 0.00 | 100 | 1010.1 |
| 20260904120003 | 66 | 112 | 0.0 | 0.0 | 0.00 | 0.00 | 0.00 | 100 | 1010.1 |
| 20260904115503 | 66 | 112 | 0.0 | 0.0 | 0.00 | 0.00 | 0.00 | 100 | 1009.9 |
| 20260904115003 | 66 | 112 | 0.0 | 0.0 | 0.00 | 0.00 | 0.00 | 100 | 1009.9 |
| 20260904114503 | 66 | 112 | 0.0 | 0.0 | 0.00 | 0.00 | 0.00 | 100 | 1009.8 |
| 20260904114003 | 67 | 112 | 0.0 | 1.0 | 0.00 | 0.00 | 0.00 | 100 | 1009.8 |
| 20260904113503 | 67 | 112 | 0.0 | 1.0 | 0.00 | 0.00 | 0.00 | 100 | 1009.9 |
| 20260904113003 | 67 | 112 | 0.0 | 1.0 | 0.00 | 0.00 | 0.00 | 100 | 1009.9 |
| 20260904112503 | 67 | 112 | 0.0 | 1.0 | 0.00 | 0.00 | 0.00 | 100 | 1009.7 |
| 20260904112002 | 67 | 112 | 0.0 | 1.0 | 0.00 | 0.00 | 0.00 | 100 | 1009.6 |
| 20260904111503 | 67 | 112 | 0.0 | 1.0 | 0.00 | 0.00 | 0.00 | 100 | 1009.5 |
| 20260904111002 | 66 | 112 | 0.0 | 2.0 | 0.00 | 0.00 | 0.00 | 100 | 1009.5 |
| 20260904110503 | 66 | 112 | 0.0 | 2.0 | 0.00 | 0.00 | 0.00 | 100 | 1009.5 |
| 20260904110003 | 66 | 112 | 1.0 | 2.0 | 0.00 | 0.00 | 0.00 | 100 | 1009.5 |
| 20260904105503 | 66 | 150 | 0.0 | 2.0 | 0.00 | 0.00 | 0.00 | 100 | 1009.5 |
| 20260904105003 | 66 | 150 | 0.0 | 2.0 | 0.00 | 0.00 | 0.00 | 100 | 1009.4 |
| 20260904104503 | 66 | 150 | 0.0 | 2.0 | 0.00 | 0.00 | 0.00 | 100 | 1009.4 |
| 20260904104002 | 67 | 150 | 0.0 | 2.0 | 0.00 | 0.00 | 0.00 | 100 | 1009.3 |
| 20260904103503 | 67 | 150 | 0.0 | 2.0 | 0.00 | 0.00 | 0.00 | 100 | 1009.3 |
| 20260904103003 | 67 | 150 | 0.0 | 2.0 | 0.00 | 0.00 | 0.00 | 100 | 1009.4 |
| 20260904102503 | 67 | 150 | 1.0 | 2.0 | 0.00 | 0.00 | 0.00 | 100 | 1009.4 |
| 20260904102003 | 67 | 150 | 0.0 | 1.0 | 0.00 | 0.00 | 0.00 | 100 | 1009.3 |
| 20260904101502 | 67 | 150 | 0.0 | 1.0 | 0.00 | 0.00 | 0.00 | 100 | 1009.3 |
| 20260904101003 | 67 | 150 | 0.0 | 0.0 | 0.00 | 0.00 | 0.00 | 100 | 1009.2 |
| 20260904100502 | 67 | 150 | 0.0 | 0.0 | 0.00 | 0.00 | 0.00 | 100 | 1009.1 |
| 20260904100003 | 67 | 150 | 0.0 | 0.0 | 0.00 | 0.00 | 0.00 | 100 | 1009.2 |
| 20260904095502 | 67 | 150 | 0.0 | 0.0 | 0.00 | 0.00 | 0.00 | 100 | 1009.2 |
| 20260904095003 | 67 | 150 | 0.0 | 1.0 | 0.00 | 0.00 | 0.00 | 100 | 1009.2 |
| 20260904094503 | 67 | 150 | 0.0 | 1.0 | 0.00 | 0.00 | 0.00 | 100 | 1009.1 |
| 20260904094003 | 67 | 150 | 0.0 | 0.0 | 0.00 | 0.00 | 0.00 | 100 | 1009.1 |
| 20260904093503 | 67 | 150 | 0.0 | 0.0 | 0.00 | 0.00 | 0.00 | 100 | 1008.9 |
| 20260904093003 | 68 | 150 | 0.0 | 0.0 | 0.00 | 0.00 | 0.00 | 100 | 1008.9 |
| 20260904092503 | 68 | 150 | 0.0 | 1.0 | 0.00 | 0.00 | 0.00 | 100 | 1008.9 |
| 20260904092002 | 68 | 150 | 0.0 | 1.0 | 0.00 | 0.00 | 0.00 | 100 | 1008.9 |
| 20260904091503 | 68 | 150 | 0.0 | 1.0 | 0.00 | 0.00 | 0.00 | 100 | 1008.9 |
| 20260904091002 | 68 | 150 | 0.0 | 0.0 | 0.00 | 0.00 | 0.00 | 100 | 1008.8 |
| 20260904090503 | 68 | 150 | 0.0 | 0.0 | 0.00 | 0.00 | 0.00 | 100 | 1008.7 |
| 20260904090003 | 68 | 150 | 0.0 | 0.0 | 0.00 | 0.00 | 0.00 | 100 | 1008.6 |
| 20260904085503 | 68 | 150 | 0.0 | 0.0 | 0.00 | 0.00 | 0.00 | 100 | 1008.5 |
| 20260904085003 | 68 | 150 | 0.0 | 0.0 | 0.00 | 0.00 | 0.00 | 100 | 1008.5 |
| 20260904084503 | 68 | 150 | 0.0 | 0.0 | 0.00 | 0.00 | 0.00 | 100 | 1008.6 |
| 20260904084002 | 68 | 150 | 0.0 | 0.0 | 0.00 | 0.00 | 0.00 | 100 | 1008.5 |
| 20260904083503 | 69 | 150 | 0.0 | 0.0 | 0.00 | 0.00 | 0.00 | 100 | 1008.6 |
| 20260904083003 | 69 | 150 | 0.0 | 1.0 | 0.00 | 0.00 | 0.00 | 100 | 1008.6 |
| 20260904082503 | 69 | 150 | 0.0 | 1.0 | 0.00 | 0.00 | 0.00 | 100 | 1008.6 |
| 20260904082003 | 69 | 150 | 0.0 | 0.0 | 0.00 | 0.00 | 0.00 | 100 | 1008.6 |
| 20260904081503 | 69 | 150 | 0.0 | 0.0 | 0.00 | 0.00 | 0.00 | 100 | 1008.5 |
| 20260904081003 | 69 | 150 | 0.0 | 2.0 | 0.00 | 0.00 | 0.00 | 100 | 1008.6 |
| 20260904080503 | 69 | 150 | 0.0 | 2.0 | 0.00 | 0.00 | 0.00 | 100 | 1008.5 |
| 20260904080003 | 69 | 150 | 0.0 | 1.0 | 0.00 | 0.00 | 0.00 | 100 | 1008.6 |
| 20260904075503 | 69 | 150 | 0.0 | 2.0 | 0.00 | 0.00 | 0.00 | 100 | 1008.5 |
| 20260904075003 | 69 | 150 | 0.0 | 2.0 | 0.00 | 0.00 | 0.00 | 100 | 1008.4 |
| 20260904074503 | 69 | 150 | 0.0 | 2.0 | 0.00 | 0.00 | 0.00 | 100 | 1008.4 |
| 20260904074003 | 69 | 150 | 0.0 | 0.0 | 0.00 | 0.00 | 0.00 | 100 | 1008.4 |
| 20260904073502 | 69 | 150 | 0.0 | 2.0 | 0.00 | 0.00 | 0.00 | 100 | 1008.4 |
| 20260904073003 | 70 | 150 | 0.0 | 2.0 | 0.00 | 0.00 | 0.00 | 100 | 1008.5 |
| 20260904072502 | 70 | 150 | 0.0 | 2.0 | 0.00 | 0.00 | 0.00 | 100 | 1008.6 |
| 20260904072003 | 70 | 150 | 0.0 | 2.0 | 0.00 | 0.00 | 0.00 | 100 | 1008.5 |
| 20260904071502 | 70 | 150 | 0.0 | 3.0 | 0.00 | 0.00 | 0.00 | 100 | 1008.5 |
| 20260904071003 | 70 | 150 | 0.0 | 3.0 | 0.00 | 0.00 | 0.00 | 100 | 1008.4 |
| 20260904070503 | 70 | 148 | 0.0 | 2.0 | 0.00 | 0.00 | 0.00 | 100 | 1008.5 |
| 20260904070003 | 70 | 148 | 0.0 | 2.0 | 0.00 | 0.00 | 0.00 | 100 | 1008.6 |
| 20260904065503 | 70 | 148 | 0.0 | 2.0 | 0.00 | 0.00 | 0.00 | 100 | 1008.5 |
| 20260904065003 | 71 | 148 | 0.0 | 2.0 | 0.00 | 0.00 | 0.00 | 100 | 1008.5 |
| 20260904064503 | 71 | 148 | 0.0 | 2.0 | 0.00 | 0.00 | 0.00 | 100 | 1008.5 |
| 20260904064003 | 71 | 148 | 0.0 | 2.0 | 0.00 | 0.00 | 0.00 | 100 | 1008.6 |
| 20260904063503 | 71 | 148 | 0.0 | 1.0 | 0.00 | 0.00 | 0.00 | 100 | 1008.5 |
| 20260904063002 | 71 | 148 | 0.0 | 0.0 | 0.00 | 0.00 | 0.00 | 100 | 1008.7 |
| 20260904062503 | 71 | 148 | 0.0 | 0.0 | 0.00 | 0.00 | 0.00 | 100 | 1008.6 |
| 20260904062002 | 71 | 148 | 0.0 | 0.0 | 0.00 | 0.00 | 0.00 | 100 | 1008.7 |
| 20260904061503 | 71 | 148 | 0.0 | 0.0 | 0.00 | 0.00 | 0.00 | 100 | 1008.6 |
| 20260904061002 | 71 | 148 | 0.0 | 0.0 | 0.00 | 0.00 | 0.00 | 100 | 1008.6 |
| 20260904060503 | 71 | 148 | 0.0 | 0.0 | 0.00 | 0.00 | 0.00 | 100 | 1008.6 |
| 20260904060002 | 72 | 148 | 0.0 | 0.0 | 0.00 | 0.00 | 0.00 | 100 | 1008.6 |
| 20260904055503 | 72 | 148 | 0.0 | 0.0 | 0.00 | 0.00 | 0.00 | 100 | 1008.7 |
| 20260904055003 | 72 | 148 | 0.0 | 0.0 | 0.00 | 0.00 | 0.00 | 100 | 1008.6 |
| 20260904054503 | 72 | 148 | 0.0 | 0.0 | 0.00 | 0.00 | 0.00 | 100 | 1008.5 |
| 20260904054003 | 72 | 148 | 0.0 | 0.0 | 0.00 | 0.00 | 0.00 | 99 | 1008.5 |
| 20260904053503 | 72 | 148 | 0.0 | 0.0 | 0.00 | 0.00 | 0.00 | 99 | 1008.4 |
| 20260904053003 | 72 | 148 | 0.0 | 0.0 | 0.00 | 0.00 | 0.00 | 99 | 1008.5 |
| 20260904052503 | 72 | 148 | 0.0 | 0.0 | 0.00 | 0.00 | 0.00 | 99 | 1008.5 |
| 20260904052003 | 72 | 148 | 0.0 | 0.0 | 0.00 | 0.00 | 0.00 | 99 | 1008.5 |
| 20260904051503 | 73 | 148 | 0.0 | 0.0 | 0.00 | 0.00 | 0.00 | 99 | 1008.4 |
| 20260904051003 | 73 | 148 | 0.0 | 0.0 | 0.00 | 0.00 | 0.00 | 98 | 1008.4 |
| 20260904050502 | 73 | 148 | 0.0 | 0.0 | 0.00 | 0.00 | 0.00 | 98 | 1008.4 |
| 20260904050003 | 73 | 148 | 0.0 | 0.0 | 0.00 | 0.00 | 0.00 | 98 | 1008.3 |
| 20260904045503 | 73 | 148 | 0.0 | 0.0 | 0.00 | 0.00 | 0.00 | 97 | 1008.4 |
| 20260904045003 | 74 | 148 | 0.0 | 0.0 | 0.00 | 0.00 | 0.00 | 96 | 1008.2 |
| 20260904044503 | 74 | 148 | 0.0 | 0.0 | 0.00 | 0.00 | 0.00 | 96 | 1008.0 |
| 20260904044003 | 74 | 148 | 0.0 | 0.0 | 0.00 | 0.00 | 0.00 | 96 | 1008.0 |
| 20260904043503 | 74 | 148 | 0.0 | 1.0 | 0.00 | 0.00 | 0.00 | 95 | 1007.9 |
| 20260904043003 | 74 | 148 | 0.0 | 1.0 | 0.00 | 0.00 | 0.00 | 94 | 1008.1 |
| 20260904042503 | 74 | 148 | 0.0 | 0.0 | 0.00 | 0.00 | 0.00 | 94 | 1007.9 |
| 20260904042002 | 75 | 148 | 0.0 | 0.0 | 0.00 | 0.00 | 0.00 | 94 | 1008.0 |
| 20260904041503 | 75 | 148 | 0.0 | 0.0 | 0.00 | 0.00 | 0.00 | 94 | 1007.9 |
| 20260904041002 | 75 | 148 | 0.0 | 1.0 | 0.00 | 0.00 | 0.00 | 94 | 1007.9 |
| 20260904040503 | 75 | 148 | 0.0 | 1.0 | 0.00 | 0.00 | 0.00 | 93 | 1008.0 |
| 20260904040003 | 75 | 148 | 0.0 | 0.0 | 0.00 | 0.00 | 0.00 | 93 | 1008.0 |
| 20260904035503 | 75 | 148 | 0.0 | 0.0 | 0.00 | 0.00 | 0.00 | 92 | 1008.0 |
| 20260904035003 | 76 | 148 | 0.0 | 0.0 | 0.00 | 0.00 | 0.00 | 93 | 1007.9 |
| 20260904034503 | 76 | 148 | 0.0 | 0.0 | 0.00 | 0.00 | 0.00 | 92 | 1007.9 |
| 20260904034003 | 76 | 148 | 0.0 | 0.0 | 0.00 | 0.00 | 0.00 | 92 | 1007.9 |
| 20260904033503 | 76 | 148 | 0.0 | 0.0 | 0.00 | 0.00 | 0.00 | 91 | 1008.0 |
| 20260904033003 | 76 | 148 | 0.0 | 0.0 | 0.00 | 0.00 | 0.00 | 91 | 1008.0 |
| 20260904032502 | 76 | 148 | 0.0 | 0.0 | 0.00 | 0.00 | 0.00 | 91 | 1007.9 |
| 20260904032003 | 76 | 148 | 0.0 | 0.0 | 0.00 | 0.00 | 0.00 | 90 | 1007.8 |
| 20260904031503 | 77 | 148 | 0.0 | 0.0 | 0.00 | 0.00 | 0.00 | 90 | 1007.7 |
| 20260904031003 | 77 | 148 | 0.0 | 0.0 | 0.00 | 0.00 | 0.00 | 90 | 1007.7 |
| 20260904030503 | 77 | 148 | 0.0 | 0.0 | 0.00 | 0.00 | 0.00 | 90 | 1007.5 |
| 20260904030003 | 77 | 148 | 0.0 | 0.0 | 0.00 | 0.00 | 0.00 | 89 | 1007.6 |
| 20260904025502 | 77 | 148 | 0.0 | 0.0 | 0.00 | 0.00 | 0.00 | 89 | 1007.6 |
| 20260904025003 | 77 | 148 | 0.0 | 0.0 | 0.00 | 0.00 | 0.00 | 89 | 1007.5 |
| 20260904024502 | 78 | 148 | 0.0 | 0.0 | 0.00 | 0.00 | 0.00 | 88 | 1007.3 |
| 20260904024003 | 78 | 148 | 0.0 | 1.0 | 0.00 | 0.00 | 0.00 | 88 | 1007.3 |
| 20260904023503 | 78 | 148 | 0.0 | 1.0 | 0.00 | 0.00 | 0.00 | 88 | 1007.2 |
| 20260904023003 | 78 | 148 | 0.0 | 3.0 | 0.00 | 0.00 | 0.00 | 87 | 1007.1 |
| 20260904022503 | 78 | 148 | 0.0 | 3.0 | 0.00 | 0.00 | 0.00 | 87 | 1007.2 |
| 20260904022003 | 79 | 146 | 0.0 | 1.0 | 0.00 | 0.00 | 0.00 | 87 | 1007.2 |
| 20260904021503 | 79 | 146 | 0.0 | 1.0 | 0.00 | 0.00 | 0.00 | 87 | 1007.1 |
| 20260904021003 | 79 | 146 | 0.0 | 2.0 | 0.00 | 0.00 | 0.00 | 86 | 1007.0 |
| 20260904020503 | 79 | 146 | 0.0 | 2.0 | 0.00 | 0.00 | 0.00 | 86 | 1006.9 |
| 20260904020004 | 80 | 146 | 0.0 | 2.0 | 0.00 | 0.00 | 0.00 | 85 | 1006.8 |
| 20260904015503 | 80 | 146 | 0.0 | 2.0 | 0.00 | 0.00 | 0.00 | 85 | 1006.8 |
| 20260904015002 | 80 | 146 | 0.0 | 2.0 | 0.00 | 0.00 | 0.00 | 85 | 1006.7 |
| 20260904014503 | 81 | 146 | 0.0 | 1.0 | 0.00 | 0.00 | 0.00 | 84 | 1006.7 |
| 20260904014002 | 81 | 146 | 0.0 | 1.0 | 0.00 | 0.00 | 0.00 | 84 | 1006.6 |
| 20260904013503 | 81 | 146 | 0.0 | 1.0 | 0.00 | 0.00 | 0.00 | 85 | 1006.5 |
| 20260904013002 | 82 | 146 | 0.0 | 1.0 | 0.00 | 0.00 | 0.00 | 84 | 1006.4 |
| 20260904012503 | 82 | 146 | 0.0 | 0.0 | 0.00 | 0.00 | 0.00 | 83 | 1006.5 |
| 20260904012003 | 82 | 146 | 0.0 | 0.0 | 0.00 | 0.00 | 0.00 | 83 | 1006.3 |
| 20260904011503 | 83 | 146 | 0.0 | 0.0 | 0.00 | 0.00 | 0.00 | 82 | 1006.3 |
| 20260904011002 | 83 | 146 | 0.0 | 0.0 | 0.00 | 0.00 | 0.00 | 81 | 1006.2 |
| 20260904010503 | 84 | 146 | 0.0 | 0.0 | 0.00 | 0.00 | 0.00 | 80 | 1006.2 |
| 20260904010003 | 84 | 146 | 0.0 | 1.0 | 0.00 | 0.00 | 0.00 | 79 | 1006.2 |
| 20260904005503 | 84 | 146 | 0.0 | 1.0 | 0.00 | 0.00 | 0.00 | 78 | 1006.2 |
| 20260904005003 | 85 | 146 | 0.0 | 1.0 | 0.00 | 0.00 | 0.00 | 77 | 1006.1 |
| 20260904004503 | 85 | 146 | 0.0 | 1.0 | 0.00 | 0.00 | 0.00 | 76 | 1006.1 |
| 20260904004003 | 86 | 146 | 0.0 | 1.0 | 0.00 | 0.00 | 0.00 | 75 | 1006.2 |
| 20260904003503 | 86 | 146 | 0.0 | 2.0 | 0.00 | 0.00 | 0.00 | 74 | 1006.1 |
| 20260904003003 | 86 | 146 | 0.0 | 3.0 | 0.00 | 0.00 | 0.00 | 74 | 1006.1 |
| 20260904002502 | 86 | 148 | 1.0 | 3.0 | 0.00 | 0.00 | 0.00 | 73 | 1006.1 |
| 20260904002003 | 86 | 151 | 0.0 | 3.0 | 0.00 | 0.00 | 0.00 | 72 | 1006.0 |
| 20260904001502 | 87 | 151 | 1.0 | 3.0 | 0.00 | 0.00 | 0.00 | 72 | 1005.9 |
| 20260904001003 | 87 | 151 | 0.0 | 2.0 | 0.00 | 0.00 | 0.00 | 71 | 1006.0 |
| 20260904000502 | 87 | 151 | 0.0 | 2.0 | 0.00 | 0.00 | 0.00 | 70 | 1006.0 |
| 20260904000003 | 87 | 151 | 0.0 | 2.0 | 0.00 | 0.00 | 0.00 | 70 | 1006.0 |
| 20260903235503 | 88 | 151 | 0.0 | 3.0 | 0.00 | 0.00 | 0.00 | 69 | 1006.0 |
| 20260903235003 | 88 | 151 | 1.0 | 4.0 | 0.00 | 0.00 | 0.00 | 68 | 1006.0 |
| 20260903234503 | 88 | 151 | 1.0 | 4.0 | 0.00 | 0.00 | 0.00 | 67 | 1006.0 |
| 20260903234003 | 88 | 130 | 0.0 | 3.0 | 0.00 | 0.00 | 0.00 | 67 | 1006.0 |
| 20260903233503 | 88 | 130 | 1.0 | 3.0 | 0.00 | 0.00 | 0.00 | 66 | 1006.1 |
| 20260903233003 | 88 | 129 | 1.0 | 7.0 | 0.00 | 0.00 | 0.00 | 66 | 1006.0 |
| 20260903232503 | 89 | 177 | 2.0 | 7.0 | 0.00 | 0.00 | 0.00 | 65 | 1006.0 |
| 20260903232003 | 89 | 216 | 1.0 | 9.0 | 0.00 | 0.00 | 0.00 | 64 | 1006.0 |
| 20260903231503 | 89 | 178 | 2.0 | 9.0 | 0.00 | 0.00 | 0.00 | 62 | 1005.8 |
| 20260903231003 | 89 | 202 | 2.0 | 6.0 | 0.00 | 0.00 | 0.00 | 62 | 1005.8 |
| 20260903230503 | 89 | 214 | 2.0 | 8.0 | 0.00 | 0.00 | 0.00 | 60 | 1005.9 |
| 20260903230003 | 89 | 164 | 3.0 | 8.0 | 0.00 | 0.00 | 0.00 | 59 | 1005.9 |
| 20260903225503 | 89 | 205 | 3.0 | 11.0 | 0.00 | 0.00 | 0.00 | 58 | 1005.8 |
| 20260903225002 | 89 | 207 | 2.0 | 11.0 | 0.00 | 0.00 | 0.00 | 58 | 1005.8 |
| 20260903224503 | 90 | 231 | 2.0 | 11.0 | 0.00 | 0.00 | 0.00 | 58 | 1005.7 |
| 20260903224002 | 90 | 238 | 4.0 | 11.0 | 0.00 | 0.00 | 0.00 | 58 | 1005.8 |
| 20260903223503 | 90 | 222 | 4.0 | 10.0 | 0.00 | 0.00 | 0.00 | 57 | 1005.7 |
| 20260903223002 | 90 | 228 | 3.0 | 11.0 | 0.00 | 0.00 | 0.00 | 57 | 1005.7 |
| 20260903222503 | 90 | 231 | 3.0 | 11.0 | 0.00 | 0.00 | 0.00 | 57 | 1005.6 |
| 20260903222002 | 90 | 205 | 3.0 | 10.0 | 0.00 | 0.00 | 0.00 | 57 | 1005.6 |
| 20260903221503 | 90 | 206 | 3.0 | 14.0 | 0.00 | 0.00 | 0.00 | 57 | 1005.6 |
| 20260903221002 | 91 | 226 | 4.0 | 14.0 | 0.00 | 0.00 | 0.00 | 56 | 1005.5 |
| 20260903220503 | 91 | 224 | 3.0 | 11.0 | 0.00 | 0.00 | 0.00 | 56 | 1005.6 |
| 20260903220003 | 91 | 244 | 3.0 | 11.0 | 0.00 | 0.00 | 0.00 | 57 | 1005.6 |
| 20260903215503 | 91 | 226 | 4.0 | 12.0 | 0.00 | 0.00 | 0.00 | 56 | 1005.4 |
| 20260903215003 | 92 | 239 | 2.0 | 12.0 | 0.00 | 0.00 | 0.00 | 58 | 1005.4 |
| 20260903214503 | 92 | 223 | 5.0 | 12.0 | 0.00 | 0.00 | 0.00 | 57 | 1005.4 |
| 20260903214003 | 92 | 228 | 6.0 | 10.0 | 0.00 | 0.00 | 0.00 | 56 | 1005.5 |
| 20260903213502 | 92 | 242 | 3.0 | 9.0 | 0.00 | 0.00 | 0.00 | 61 | 1005.3 |
| 20260903213004 | 92 | 203 | 2.0 | 13.0 | 0.00 | 0.00 | 0.00 | 62 | 1005.4 |
| 20260903212502 | 92 | 216 | 2.0 | 13.0 | 0.00 | 0.00 | 0.00 | 59 | 1005.3 |
| 20260903212003 | 92 | 231 | 6.0 | 12.0 | 0.00 | 0.00 | 0.00 | 55 | 1005.2 |
| 20260903211502 | 92 | 233 | 4.0 | 12.0 | 0.00 | 0.00 | 0.00 | 59 | 1005.2 |
| 20260903211003 | 92 | 225 | 4.0 | 11.0 | 0.00 | 0.00 | 0.00 | 57 | 1005.3 |
| 20260903210502 | 92 | 235 | 3.0 | 12.0 | 0.00 | 0.00 | 0.00 | 58 | 1005.2 |
| 20260903210003 | 92 | 189 | 1.0 | 12.0 | 0.00 | 0.00 | 0.00 | 61 | 1005.2 |
| 20260903205502 | 91 | 180 | 2.0 | 9.0 | 0.00 | 0.00 | 0.00 | 62 | 1005.2 |
| 20260903205003 | 91 | 219 | 3.0 | 9.0 | 0.00 | 0.00 | 0.00 | 63 | 1005.0 |
| 20260903204503 | 91 | 196 | 3.0 | 9.0 | 0.00 | 0.00 | 0.00 | 64 | 1005.1 |
| 20260903204003 | 91 | 168 | 2.0 | 7.0 | 0.00 | 0.00 | 0.00 | 65 | 1005.0 |
| 20260903203503 | 91 | 202 | 2.0 | 7.0 | 0.00 | 0.00 | 0.00 | 66 | 1004.9 |
| 20260903203003 | 91 | 206 | 2.0 | 7.0 | 0.00 | 0.00 | 0.00 | 67 | 1004.9 |
| 20260903202503 | 91 | 156 | 2.0 | 7.0 | 0.00 | 0.00 | 0.00 | 68 | 1005.0 |
| 20260903202003 | 90 | 224 | 1.0 | 6.0 | 0.00 | 0.00 | 0.00 | 68 | 1005.1 |
| 20260903201503 | 90 | 203 | 3.0 | 6.0 | 0.00 | 0.00 | 0.00 | 69 | 1005.2 |
| 20260903201003 | 90 | 168 | 2.0 | 7.0 | 0.00 | 0.00 | 0.00 | 69 | 1005.1 |
| 20260903200503 | 90 | 185 | 3.0 | 7.0 | 0.00 | 0.00 | 0.00 | 69 | 1005.3 |
| 20260903200003 | 89 | 192 | 3.0 | 9.0 | 0.00 | 0.00 | 0.00 | 70 | 1005.3 |
| 20260903195503 | 89 | 204 | 4.0 | 10.0 | 0.00 | 0.00 | 0.00 | 70 | 1005.3 |
| 20260903195003 | 89 | 175 | 6.0 | 10.0 | 0.00 | 0.00 | 0.00 | 69 | 1005.4 |
| 20260903194503 | 89 | 162 | 3.0 | 10.0 | 0.00 | 0.00 | 0.00 | 69 | 1005.5 |
| 20260903194003 | 89 | 160 | 3.0 | 9.0 | 0.00 | 0.00 | 0.00 | 70 | 1005.5 |
| 20260903193503 | 89 | 203 | 3.0 | 9.0 | 0.00 | 0.00 | 0.00 | 71 | 1005.6 |
| 20260903193003 | 90 | 154 | 2.0 | 9.0 | 0.00 | 0.00 | 0.00 | 70 | 1005.6 |
| 20260903192503 | 90 | 111 | 3.0 | 9.0 | 0.00 | 0.00 | 0.00 | 69 | 1005.6 |
| 20260903192003 | 90 | 239 | 1.0 | 10.0 | 0.00 | 0.00 | 0.00 | 70 | 1005.6 |
| 20260903191503 | 90 | 181 | 2.0 | 10.0 | 0.00 | 0.00 | 0.00 | 70 | 1005.7 |
| 20260903191002 | 89 | 165 | 3.0 | 9.0 | 0.00 | 0.00 | 0.00 | 70 | 1005.8 |
| 20260903190503 | 89 | 195 | 3.0 | 12.0 | 0.00 | 0.00 | 0.00 | 70 | 1005.8 |
| 20260903190002 | 89 | 172 | 4.0 | 12.0 | 0.00 | 0.00 | 0.00 | 70 | 1005.8 |
| 20260903185503 | 89 | 158 | 4.0 | 10.0 | 0.00 | 0.00 | 0.00 | 71 | 1005.8 |
| 20260903185003 | 89 | 143 | 3.0 | 8.0 | 0.00 | 0.00 | 0.00 | 72 | 1006.0 |
| 20260903184503 | 89 | 130 | 3.0 | 8.0 | 0.00 | 0.00 | 0.00 | 72 | 1005.8 |
| 20260903184003 | 88 | 140 | 2.0 | 7.0 | 0.00 | 0.00 | 0.00 | 73 | 1005.9 |